This is the latest recevied weather packets stored in our database for station/object GCEMA. If no packets are shown the sender has not sent any weather packets the latest 10 day(s).
| Time | Temp. | Humidity | Pressure | Rain* | Wind** | Luminosity | Snow |
|---|---|---|---|---|---|---|---|
| 1777880513 | 17.78° C | - | 1006.5 hPa | 0 mm | 0 m/s | - | - |
| 1777880154 | 18.33° C | - | 1006.7 hPa | 0 mm | 0 m/s | - | - |
| 1777879974 | 18.33° C | - | 1006.6 hPa | 0 mm | 0 m/s | - | - |
| 1777879792 | 18.33° C | - | 1006.6 hPa | 0 mm | 0 m/s | - | - |
| 1777879612 | 18.33° C | - | 1006.6 hPa | 0 mm | 0 m/s | - | - |
| 1777879433 | 18.33° C | - | 1006.6 hPa | 0 mm | 0 m/s | - | - |
| 1777879074 | 18.89° C | - | 1006.7 hPa | 0 mm | 0 m/s | - | - |
| 1777878353 | 18.33° C | - | 1006.8 hPa | 0 mm | 0 m/s | - | - |
| 1777878173 | 18.33° C | - | 1006.9 hPa | 0 mm | 0 m/s | - | - |
| 1777877991 | 18.33° C | - | 1006.8 hPa | 0 mm | 0 m/s | - | - |
| 1777877813 | 18.89° C | - | 1006.9 hPa | 0 mm | 0 m/s | - | - |
| 1777877632 | 18.33° C | - | 1006.9 hPa | 0 mm | 0 m/s | - | - |
| 1777877452 | 18.33° C | - | 1007 hPa | 0 mm | 0 m/s | - | - |
| 1777877273 | 18.33° C | - | 1007 hPa | 0 mm | 0 m/s | - | - |
| 1777876911 | 17.78° C | - | 1007.1 hPa | 0 mm | 0 m/s | - | - |
| 1777876551 | 17.78° C | - | 1007.1 hPa | 0 mm | 0 m/s | - | - |
| 1777876372 | 18.33° C | - | 1007 hPa | 0 mm | 0 m/s | - | - |
| 1777876189 | 18.33° C | - | 1007.1 hPa | 0 mm | 0 m/s | - | - |
| 1777875830 | 17.78° C | - | 1007.1 hPa | 0 mm | 0 m/s | - | - |
| 1777875473 | 18.33° C | - | 1007.1 hPa | 0 mm | 0 m/s | - | - |
| 1777875109 | 17.78° C | - | 1007.3 hPa | 0 mm | 0 m/s | - | - |
| 1777874750 | 18.33° C | - | 1007.2 hPa | 0 mm | 0 m/s | - | - |
| 1777874571 | 16.67° C | - | 1007.3 hPa | 0 mm | 0 m/s | - | - |
| 1777874388 | 18.33° C | - | 1007.4 hPa | 0 mm | 0 m/s | - | - |
| 1777874211 | 18.33° C | - | 1007.4 hPa | 0 mm | 0 m/s | - | - |
* Rain latest hour (hover to see other rain measurements)
** Current wind speed in m/s (hover to see current wind gust speed)